[[{"header":{"parameterUnit":"m.s-1","parameterCategory":2,"la1":30.2991,"la2":30.254,"lo1":-89.0895,"lo2":-89.0444,"dy":0.0017,"dx":0.0017,"nx":28,"ny":28,"refTime":"2023-08-04T21:00:00:Z","depth":"0","parameterNumber":2,"parameterNumberName":"U-component_of_CURRENTS"},"data":[0,0,0,0,0,0,0,0,0,0,0,0,0,0,0,0,0,0,0,0,0,0,0,0,0,0,0,0,0,0,0,0,0,0,0,0,0,0,0,0,0,0,0,0,0,0,0,0,0,0,0,0,0,0,0,0,0,0,-0.1398,-0.1398,0,-0.142,-0.142,-0.1421,-0.1457,-0.1458,-0.1458,-0.1459,-0.1557,-0.1558,-0.156,0,0,0,0,0,0,0,0,0,0,0,0,0,-0.1382,-0.1383,-0.1398,-0.1399,-0.1399,-0.142,-0.1421,-0.1421,-0.1457,-0.1458,-0.1459,-0.1459,-0.1556,-0.1558,-0.156,0,0,0,0,0,0,0,0,0,0,0,0,0,-0.1395,-0.1383,-0.1398,-0.142,-0.1422,-0.142,-0.1421,-0.1421,-0.1457,-0.1458,-0.1459,-0.146,-0.1555,-0.1558,-0.1561,-0.1556,0,0,-0.157,-0.1571,0,0,0,0,0,0,0,0,-0.1394,-0.1395,-0.1416,-0.1419,-0.1421,-0.1438,-0.1451,-0.147,-0.1456,-0.1443,-0.1459,-0.146,-0.1524,-0.1529,-0.1528,-0.1561,-0.1565,-0.157,-0.1572,-0.1573,-0.1574,0,0,0,0,0,0,0,-0.1393,-0.1394,-0.1406,-0.1417,-0.142,-0.1427,-0.143,-0.1454,-0.1477,-0.1444,-0.1447,-0.145,-0.1525,-0.1525,-0.1531,-0.1566,-0.157,-0.1572,-0.1574,-0.1575,-0.1578,-0.1576,0,0,0,0,0,0,-0.1391,-0.1393,-0.1405,-0.1407,-0.1411,-0.1427,-0.143,-0.1431,-0.1476,-0.1483,-0.1449,-0.1452,-0.152,-0.1528,-0.1535,-0.1561,-0.1573,-0.1575,-0.1577,-0.158,-0.1578,-0.1576,0,0,0,0,0,0,-0.139,-0.1392,-0.1405,-0.1402,-0.1404,-0.1426,-0.1426,-0.143,-0.1429,-0.1479,-0.1488,-0.1444,-0.1521,-0.1531,-0.1548,-0.1564,-0.1577,-0.1579,-0.1582,-0.1579,-0.1577,-0.1594,0,0,0,0,0,0,-0.139,-0.1391,-0.1389,-0.1401,-0.1404,-0.1409,-0.1425,-0.143,-0.143,-0.1434,-0.1478,-0.1488,-0.1523,-0.1543,-0.1551,-0.1568,-0.1582,-0.1584,-0.158,-0.1577,-0.1596,-0.1593,-0.159,0,0,0,0,0,-0.1389,-0.1389,-0.1388,-0.139,-0.1401,-0.1409,-0.1411,-0.143,-0.1429,-0.1432,-0.145,-0.1486,-0.1529,-0.1545,-0.1554,-0.1572,-0.1585,-0.1581,-0.1578,-0.1597,-0.1593,-0.159,0,0,0,0,0,0,-0.1387,-0.1392,-0.1393,-0.1395,-0.1402,-0.1416,-0.1419,-0.142,-0.1433,-0.1434,-0.1473,-0.1485,-0.1508,-0.1517,-0.1533,-0.1554,-0.156,-0.1558,-0.1571,-0.1568,-0.1565,-0.1616,-0.1584,0,0,0,0,0,-0.1381,-0.1379,-0.1387,-0.1388,-0.139,-0.1396,-0.1399,-0.1407,-0.142,-0.1426,-0.1456,-0.1474,-0.1497,-0.1513,-0.1535,-0.1548,-0.1579,-0.1556,-0.1554,-0.1552,-0.1593,-0.1625,-0.1631,-0.1564,-0.1564,-0.1564,0,0,-0.138,-0.1383,-0.1382,-0.1387,-0.1391,-0.1409,-0.1401,-0.1403,-0.1429,-0.1435,-0.1472,-0.1473,-0.1495,-0.1518,-0.1527,-0.1531,-0.1579,-0.1547,-0.1546,-0.159,-0.1622,-0.1629,-0.1636,-0.1561,-0.1562,-0.1562,0,0,-0.1382,-0.1377,-0.1379,-0.1384,-0.1388,-0.1404,-0.1401,-0.141,-0.1425,-0.1441,-0.1455,-0.1465,-0.1489,-0.1522,-0.1538,-0.1525,-0.1564,-0.1506,-0.1546,-0.1574,-0.1582,-0.1589,-0.162,-0.163,-0.1505,-0.1505,-0.1505,0,-0.1384,-0.1387,-0.1381,-0.1389,-0.1405,-0.1404,-0.1423,-0.1439,-0.1454,-0.1474,-0.1457,-0.1498,-0.1507,-0.1561,-0.1549,-0.1531,-0.1544,-0.1566,-0.1577,-0.1585,-0.1593,-0.1622,-0.1633,-0.1505,-0.1505,-0.1505,-0.1505,0,-0.1393,-0.1395,-0.1397,-0.1417,-0.1434,-0.1443,-0.1471,-0.1491,-0.1498,-0.1513,-0.1549,-0.1552,-0.1583,-0.1567,-0.156,-0.1606,-0.1597,-0.1575,-0.1602,-0.1602,-0.163,-0.1642,-0.1506,-0.1506,-0.1506,-0.1506,0,0,-0.1411,-0.1404,-0.1409,-0.1418,-0.1447,-0.1465,-0.1517,-0.1565,-0.1606,-0.1608,-0.1666,-0.1671,-0.1658,-0.1673,-0.1658,-0.1678,-0.1716,-0.1643,-0.1644,-0.1703,-0.178,-0.1802,-0.1817,-0.1689,-0.1691,-0.1693,-0.1775,0,-0.1426,-0.1432,-0.1444,-0.1481,-0.149,-0.1524,-0.1579,-0.1621,-0.1653,-0.1707,-0.1717,-0.1751,-0.1703,-0.1707,-0.1722,-0.1722,-0.1748,-0.1697,-0.1748,-0.1751,-0.1796,-0.1832,-0.1811,-0.1885,-0.1786,-0.1788,-0.1789,0,-0.1446,-0.1446,-0.1463,-0.1507,-0.152,-0.1553,-0.1647,-0.1692,-0.1768,-0.1789,-0.1829,-0.1835,-0.1876,-0.1822,-0.1864,-0.1827,-0.1816,-0.1812,-0.1814,-0.1852,-0.1796,-0.1869,-0.1909,-0.1689,-0.1807,-0.1805,-0.1804,0,-0.1451,-0.1477,-0.1489,-0.1497,-0.1543,-0.1578,-0.1625,-0.1705,-0.1757,-0.1841,-0.1884,-0.1928,-0.1955,-0.1957,-0.1938,-0.1899,-0.1988,-0.193,-0.1954,-0.1954,-0.1963,-0.1961,-0.1833,-0.1983,-0.1983,-0.1982,-0.1982,0,-0.1464,-0.1477,-0.1483,-0.1482,-0.1526,-0.1572,-0.1646,-0.1699,-0.1795,-0.1869,-0.1912,-0.1982,-0.1987,-0.203,-0.1995,-0.2026,-0.2033,-0.2002,-0.1993,-0.1961,-0.1959,-0.1789,-0.1721,-0.1985,-0.1985,-0.1984,-0.1984,0,-0.1454,-0.1454,-0.1462,-0.1496,-0.1512,-0.1541,-0.1636,-0.1704,-0.1787,-0.1896,-0.1925,-0.2031,-0.2077,-0.2091,-0.2112,-0.211,-0.2073,-0.2128,-0.2097,-0.2084,-0.1897,-0.1834,-0.1947,-0.1896,-0.2181,-0.2182,-0.2183,0,-0.145,-0.1437,-0.1447,-0.146,-0.1468,-0.1522,-0.1577,-0.1675,-0.1757,-0.1924,-0.1984,-0.2075,-0.2123,-0.2193,-0.2223,-0.2229,-0.2097,-0.2217,-0.2149,-0.1921,-0.1842,-0.1883,-0.1833,-0.2151,-0.2151,-0.2152,-0.2152,0,-0.1428,-0.1415,-0.1407,-0.142,-0.1459,-0.1521,-0.1605,-0.1659,-0.1805,-0.1895,-0.2017,-0.2063,-0.2184,-0.2222,-0.2272,-0.2246,-0.2123,-0.2231,-0.1999,-0.1841,-0.1878,-0.1811,-0.2049,-0.2158,-0.2157,-0.2157,-0.2157,-0.2156,-0.1408,-0.1382,-0.1363,-0.138,-0.1433,-0.1503,-0.1516,-0.1639,-0.1732,-0.1845,-0.1967,-0.2034,-0.2147,-0.2219,-0.2174,-0.2068,-0.2159,-0.1983,-0.1937,-0.2008,-0.1932,-0.2198,-0.2286,-0.2286,-0.2287,-0.2287,-0.2287,0,-0.1388,-0.1343,-0.1343,-0.1352,-0.1395,-0.1439,-0.1527,-0.1528,-0.1592,-0.1761,-0.1835,-0.1976,-0.1951,-0.1948,-0.1932,-0.1794,-0.1776,-0.166,-0.1633,-0.1601,-0.1811,-0.1768,-0.1741,-0.1741,-0.1741,-0.1742,-0.1742,-0.1742,-0.1373,-0.1329,-0.1306,-0.131,-0.1325,-0.1326,-0.1341,-0.1336,-0.1418,-0.1525,-0.1663,-0.1776,-0.166,-0.1645,-0.1393,-0.1352,-0.1207,-0.131,-0.1215,-0.1204,-0.1226,-0.1247,-0.118,-0.1032,-0.1031,-0.1017,-0.1015,-0.1014]},{"header":{"parameterUnit":"m.s-1","parameterCategory":2,"la1":30.2991,"la2":30.254,"lo1":-89.0895,"lo2":-89.0444,"dy":0.0017,"dx":0.0017,"nx":28,"ny":28,"refTime":"2023-08-04T21:00:00:Z","depth":"0","parameterNumber":3,"parameterNumberName":"V-component_of_CURRENTS"},"data":[0,0,0,0,0,0,0,0,0,0,0,0,0,0,0,0,0,0,0,0,0,0,0,0,0,0,0,0,0,0,0,0,0,0,0,0,0,0,0,0,0,0,0,0,0,0,0,0,0,0,0,0,0,0,0,0,0,0,-0.1487,-0.1486,0,-0.1363,-0.1361,-0.1359,-0.1258,-0.1258,-0.1258,-0.1257,-0.0894,-0.0885,-0.0876,0,0,0,0,0,0,0,0,0,0,0,0,0,-0.1556,-0.1555,-0.1487,-0.1486,-0.1485,-0.1364,-0.1361,-0.1359,-0.1258,-0.1258,-0.1258,-0.1257,-0.0897,-0.0886,-0.0875,0,0,0,0,0,0,0,0,0,0,0,0,0,-0.1482,-0.1555,-0.1487,-0.1426,-0.142,-0.1364,-0.1361,-0.1358,-0.1259,-0.1258,-0.1257,-0.1257,-0.0901,-0.0887,-0.0873,-0.0797,0,0,-0.083,-0.0824,0,0,0,0,0,0,0,0,-0.1486,-0.1478,-0.1436,-0.143,-0.1423,-0.1332,-0.1253,-0.1161,-0.1259,-0.1312,-0.1257,-0.1257,-0.1024,-0.1,-0.097,-0.078,-0.0765,-0.0829,-0.0821,-0.0815,-0.0811,0,0,0,0,0,0,0,-0.1492,-0.1483,-0.143,-0.1435,-0.1428,-0.1378,-0.1367,-0.1235,-0.1162,-0.1307,-0.1301,-0.13,-0.1017,-0.0984,-0.096,-0.0759,-0.083,-0.0817,-0.0809,-0.0803,-0.0449,-0.0448,0,0,0,0,0,0,-0.1527,-0.1488,-0.1434,-0.1427,-0.1463,-0.1378,-0.1365,-0.1356,-0.1168,-0.1143,-0.1301,-0.1296,-0.1008,-0.0977,-0.0947,-0.0834,-0.0815,-0.0802,-0.0794,-0.045,-0.0449,-0.0447,0,0,0,0,0,0,-0.1529,-0.1523,-0.1439,-0.1461,-0.1448,-0.1379,-0.1368,-0.1354,-0.1303,-0.1167,-0.1136,-0.1265,-0.1007,-0.0966,-0.0811,-0.0819,-0.0795,-0.0783,-0.0451,-0.0449,-0.0448,-0.0613,0,0,0,0,0,0,-0.1531,-0.1524,-0.1514,-0.1464,-0.1449,-0.1404,-0.1369,-0.1352,-0.1308,-0.13,-0.1126,-0.1093,-0.1003,-0.0833,-0.0797,-0.0799,-0.0772,-0.0452,-0.045,-0.0448,-0.0609,-0.0617,-0.0625,0,0,0,0,0,-0.1534,-0.1523,-0.1514,-0.1507,-0.1442,-0.1404,-0.139,-0.1335,-0.1308,-0.1285,-0.1161,-0.1098,-0.0797,-0.082,-0.0778,-0.0777,-0.0453,-0.0451,-0.0449,-0.0605,-0.0616,-0.0625,0,0,0,0,0,0,-0.1533,-0.1511,-0.15,-0.1479,-0.1449,-0.139,-0.1369,-0.133,-0.1219,-0.1197,-0.1063,-0.1021,-0.0899,-0.0799,-0.0828,-0.0667,-0.0622,-0.0611,-0.0755,-0.0763,-0.0771,-0.0815,-0.076,0,0,0,0,0,-0.1538,-0.153,-0.15,-0.1482,-0.1476,-0.1421,-0.1393,-0.1356,-0.1268,-0.122,-0.1103,-0.0971,-0.086,-0.0782,-0.0665,-0.0554,-0.0513,-0.053,-0.0538,-0.0546,-0.0551,-0.0494,-0.05,-0.044,-0.044,-0.044,0,0,-0.1535,-0.1522,-0.1516,-0.1483,-0.1457,-0.1441,-0.14,-0.1364,-0.1333,-0.1191,-0.1089,-0.0986,-0.0836,-0.0734,-0.067,-0.0647,-0.0547,-0.0543,-0.0551,-0.0552,-0.0493,-0.0499,-0.0505,-0.0439,-0.0439,-0.0439,0,0,-0.154,-0.1518,-0.1522,-0.1504,-0.1476,-0.1441,-0.1434,-0.137,-0.1326,-0.122,-0.113,-0.1034,-0.0835,-0.0763,-0.0694,-0.0663,-0.0595,-0.0618,-0.0684,-0.0631,-0.0636,-0.0641,-0.0643,-0.0646,-0.0619,-0.0619,-0.0619,0,-0.1534,-0.1538,-0.1513,-0.1515,-0.1503,-0.1448,-0.1444,-0.1393,-0.1279,-0.1244,-0.12,-0.0976,-0.0862,-0.0764,-0.0765,-0.0688,-0.0655,-0.0672,-0.0648,-0.0651,-0.0652,-0.0652,-0.0654,-0.0627,-0.0626,-0.0625,-0.0624,0,-0.1551,-0.1551,-0.1553,-0.1543,-0.1518,-0.1505,-0.1457,-0.1409,-0.1347,-0.1298,-0.1191,-0.1053,-0.0927,-0.0889,-0.0809,-0.0766,-0.0742,-0.0678,-0.0644,-0.067,-0.0667,-0.0666,-0.0638,-0.0635,-0.0632,-0.0631,0,0,-0.1541,-0.1564,-0.1563,-0.1575,-0.1534,-0.1518,-0.1476,-0.143,-0.1407,-0.1305,-0.127,-0.1117,-0.1066,-0.0984,-0.0892,-0.0849,-0.0858,-0.0775,-0.0769,-0.0815,-0.0777,-0.0924,-0.0936,-0.0786,-0.0786,-0.0785,-0.0789,0,-0.156,-0.1596,-0.1583,-0.1591,-0.1604,-0.1553,-0.152,-0.1466,-0.1404,-0.1354,-0.1257,-0.117,-0.1094,-0.1039,-0.0992,-0.0866,-0.0852,-0.0865,-0.071,-0.0706,-0.0864,-0.0938,-0.0863,-0.0873,-0.0787,-0.0787,-0.0787,0,-0.1573,-0.1602,-0.1634,-0.1638,-0.1637,-0.1622,-0.1577,-0.1536,-0.1465,-0.1417,-0.1346,-0.1261,-0.1178,-0.1113,-0.0971,-0.0976,-0.09,-0.0827,-0.0823,-0.0899,-0.085,-0.0816,-0.0873,-0.0493,-0.0784,-0.0784,-0.0784,0,-0.1592,-0.1623,-0.1657,-0.166,-0.1655,-0.1648,-0.1621,-0.1558,-0.153,-0.146,-0.1435,-0.1327,-0.1254,-0.1145,-0.1013,-0.0972,-0.0889,-0.0803,-0.0882,-0.0892,-0.0768,-0.077,-0.0467,-0.0738,-0.0738,-0.0738,-0.0738,0,-0.1609,-0.1627,-0.1678,-0.1698,-0.1718,-0.1688,-0.168,-0.1638,-0.159,-0.157,-0.1472,-0.1438,-0.125,-0.1178,-0.1062,-0.1007,-0.0927,-0.0931,-0.0909,-0.083,-0.0838,-0.0452,-0.024,-0.0739,-0.0739,-0.0739,-0.0738,0,-0.1596,-0.1641,-0.1684,-0.1721,-0.1733,-0.1736,-0.1725,-0.172,-0.1662,-0.1638,-0.1616,-0.1505,-0.1424,-0.1303,-0.1135,-0.1082,-0.0856,-0.1003,-0.0974,-0.0953,-0.0712,-0.0515,-0.0405,-0.0299,-0.1093,-0.1097,-0.11,0,-0.1587,-0.1618,-0.1703,-0.1748,-0.1766,-0.1781,-0.1793,-0.1753,-0.1752,-0.1682,-0.1682,-0.1608,-0.1592,-0.1473,-0.1349,-0.1261,-0.0954,-0.1135,-0.106,-0.0731,-0.0488,-0.0461,-0.0373,-0.0949,-0.0951,-0.0952,-0.0953,0,-0.1556,-0.1598,-0.1639,-0.1758,-0.1808,-0.1846,-0.1864,-0.188,-0.1832,-0.1839,-0.1828,-0.1819,-0.1724,-0.1641,-0.1558,-0.1416,-0.0898,-0.1172,-0.0762,-0.0334,-0.0338,-0.0213,-0.0944,-0.0966,-0.0964,-0.0963,-0.0963,-0.0962,-0.1518,-0.1551,-0.1646,-0.1746,-0.1818,-0.1893,-0.1919,-0.1975,-0.2007,-0.2054,-0.2005,-0.2059,-0.1815,-0.1711,-0.1531,-0.0989,-0.104,-0.0748,-0.0537,-0.0547,-0.0436,-0.1288,-0.1339,-0.1339,-0.134,-0.1341,-0.1342,0,-0.1477,-0.1539,-0.1634,-0.1755,-0.1833,-0.1884,-0.1954,-0.2009,-0.2098,-0.2227,-0.2288,-0.2115,-0.1824,-0.1422,-0.0757,-0.0354,-0.0241,-0.0044,0.0202,0.026,-0.0383,-0.036,-0.0282,-0.0282,-0.0282,-0.0283,-0.0283,-0.0283,-0.1463,-0.1535,-0.1609,-0.1741,-0.1825,-0.1933,-0.1979,-0.2102,-0.2219,-0.2344,-0.2352,-0.2305,-0.1263,-0.0285,0.056,0.0642,0.1032,0.0932,0.1093,0.093,0.0888,0.0847,0.0924,0.127,0.1272,0.1677,0.1684,0.1689]}],[{"header":{"parameterUnit":"m.s-1","parameterCategory":2,"la1":30.2991,"la2":30.254,"lo1":-89.0895,"lo2":-89.0444,"dy":0.0017,"dx":0.0017,"nx":28,"ny":28,"refTime":"2023-08-04T21:00:00:Z","depth":"2","parameterNumber":2,"parameterNumberName":"U-component_of_CURRENTS"},"data":[0,0,0,0,0,0,0,0,0,0,0,0,0,0,0,0,0,0,0,0,0,0,0,0,0,0,0,0,0,0,0,0,0,0,0,0,0,0,0,0,0,0,0,0,0,0,0,0,0,0,0,0,0,0,0,0,0,0,-0.3546,-0.3548,0,-0.3711,-0.3712,-0.3713,-0.3736,-0.3735,-0.3735,-0.3734,-0.3524,-0.3519,-0.3514,0,0,0,0,0,0,0,0,0,0,0,0,0,-0.34,-0.3401,-0.3545,-0.3548,-0.3551,-0.3711,-0.3712,-0.3714,-0.3736,-0.3735,-0.3735,-0.3734,-0.3525,-0.3519,-0.3513,0,0,0,0,0,0,0,0,0,0,0,0,0,-0.3495,-0.3401,-0.3545,-0.3589,-0.3595,-0.3711,-0.3712,-0.3714,-0.3736,-0.3735,-0.3734,-0.3733,-0.3527,-0.352,-0.3512,-0.3486,0,0,-0.349,-0.3486,0,0,0,0,0,0,0,0,-0.3489,-0.3498,-0.358,-0.3586,-0.3594,-0.3711,-0.3585,-0.3622,-0.3737,-0.3672,-0.3734,-0.3733,-0.3558,-0.3548,-0.3573,-0.3476,-0.3467,-0.3489,-0.3484,-0.3481,-0.3479,0,0,0,0,0,0,0,-0.3482,-0.3493,-0.3601,-0.3583,-0.3592,-0.3654,-0.3663,-0.3594,-0.3604,-0.3678,-0.3682,-0.3717,-0.3558,-0.3581,-0.3567,-0.3464,-0.3489,-0.3482,-0.3478,-0.3475,-0.3338,-0.3339,0,0,0,0,0,0,-0.3475,-0.3486,-0.3596,-0.3607,-0.3549,-0.3657,-0.3668,-0.3666,-0.3613,-0.361,-0.3718,-0.3718,-0.3594,-0.3576,-0.3559,-0.3498,-0.3481,-0.3474,-0.347,-0.3337,-0.3338,-0.3339,0,0,0,0,0,0,-0.347,-0.3481,-0.3589,-0.356,-0.3579,-0.366,-0.3659,-0.367,-0.3705,-0.365,-0.3637,-0.3744,-0.3592,-0.357,-0.3505,-0.349,-0.3471,-0.3464,-0.3336,-0.3337,-0.3338,-0.339,0,0,0,0,0,0,-0.3465,-0.3478,-0.3531,-0.3558,-0.3581,-0.3678,-0.3661,-0.3674,-0.3732,-0.3733,-0.3666,-0.3647,-0.359,-0.3517,-0.3497,-0.348,-0.3458,-0.3335,-0.3336,-0.3338,-0.3387,-0.3393,-0.3398,0,0,0,0,0,-0.3458,-0.3521,-0.3531,-0.3549,-0.363,-0.3681,-0.3698,-0.3747,-0.3734,-0.3768,-0.3706,-0.3649,-0.3513,-0.3511,-0.3488,-0.3468,-0.3334,-0.3336,-0.3338,-0.3385,-0.3392,-0.3398,0,0,0,0,0,0,-0.35,-0.3531,-0.3542,-0.3616,-0.3657,-0.3689,-0.375,-0.3758,-0.3746,-0.3725,-0.3651,-0.3627,-0.3572,-0.352,-0.352,-0.3439,-0.3417,-0.3415,-0.3461,-0.3467,-0.3472,-0.3422,-0.3452,0,0,0,0,0,-0.3531,-0.3563,-0.3604,-0.366,-0.3681,-0.3711,-0.3757,-0.3763,-0.3746,-0.3746,-0.3686,-0.3619,-0.3566,-0.3517,-0.3467,-0.3407,-0.333,-0.3386,-0.3391,-0.3396,-0.3344,-0.3249,-0.3239,-0.3345,-0.3345,-0.3345,0,0,-0.3556,-0.3587,-0.3606,-0.3672,-0.3697,-0.3704,-0.3732,-0.3777,-0.3757,-0.3712,-0.3659,-0.3635,-0.356,-0.3508,-0.3477,-0.3454,-0.3334,-0.3398,-0.3402,-0.3346,-0.325,-0.3239,-0.3229,-0.3346,-0.3346,-0.3346,0,0,-0.3577,-0.3643,-0.3656,-0.3684,-0.3735,-0.3744,-0.3753,-0.3769,-0.3765,-0.3731,-0.369,-0.3649,-0.357,-0.3509,-0.3467,-0.3465,-0.3378,-0.3474,-0.3432,-0.3343,-0.3332,-0.3321,-0.3237,-0.3218,-0.346,-0.346,-0.346,0,-0.3605,-0.3617,-0.3679,-0.3685,-0.3697,-0.3742,-0.3723,-0.3737,-0.3723,-0.3692,-0.3711,-0.36,-0.3556,-0.3456,-0.3471,-0.3467,-0.3411,-0.3414,-0.3345,-0.3333,-0.3321,-0.3236,-0.3215,-0.3463,-0.3463,-0.3462,-0.3462,0,-0.3602,-0.3625,-0.3634,-0.3627,-0.3661,-0.3662,-0.3668,-0.3672,-0.3668,-0.3658,-0.3597,-0.3561,-0.3485,-0.3493,-0.3474,-0.3378,-0.3367,-0.3377,-0.3322,-0.3312,-0.3226,-0.3202,-0.3467,-0.3466,-0.3465,-0.3464,0,0,-0.3553,-0.3615,-0.3603,-0.3589,-0.3617,-0.3619,-0.3596,-0.3574,-0.353,-0.354,-0.3459,-0.3426,-0.3431,-0.3384,-0.3375,-0.3301,-0.3203,-0.3305,-0.3299,-0.3205,-0.3004,-0.3012,-0.2987,-0.321,-0.3206,-0.3202,-0.2987,0,-0.3499,-0.3497,-0.3533,-0.349,-0.3477,-0.3505,-0.3478,-0.3468,-0.346,-0.3406,-0.3383,-0.3336,-0.3384,-0.3366,-0.3298,-0.3229,-0.3139,-0.3259,-0.3036,-0.3028,-0.3024,-0.2958,-0.2672,-0.2457,-0.2963,-0.2959,-0.2956,0,-0.3429,-0.3443,-0.3405,-0.34,-0.3392,-0.3377,-0.3324,-0.3315,-0.3277,-0.3274,-0.3236,-0.3235,-0.315,-0.3202,-0.3035,-0.3117,-0.3045,-0.2993,-0.2984,-0.2938,-0.299,-0.2543,-0.2394,-0.2916,-0.2919,-0.2922,-0.2925,0,-0.3316,-0.3323,-0.3288,-0.3286,-0.3303,-0.3275,-0.3284,-0.3264,-0.3235,-0.3201,-0.3167,-0.3097,-0.3053,-0.296,-0.2925,-0.2957,-0.2733,-0.276,-0.2682,-0.2682,-0.2358,-0.2339,-0.2588,-0.2588,-0.2589,-0.2589,-0.259,0,-0.3212,-0.3168,-0.324,-0.3213,-0.3158,-0.3208,-0.3145,-0.3149,-0.3127,-0.3059,-0.3103,-0.3017,-0.2992,-0.2901,-0.2849,-0.2705,-0.2674,-0.2622,-0.2606,-0.2379,-0.2364,-0.2702,-0.2718,-0.2581,-0.2583,-0.2585,-0.2586,0,-0.306,-0.311,-0.3071,-0.3101,-0.3102,-0.307,-0.3086,-0.3041,-0.3064,-0.2967,-0.2961,-0.2923,-0.2828,-0.2805,-0.2648,-0.2603,-0.2479,-0.2437,-0.2196,-0.2158,-0.2489,-0.2511,-0.2254,-0.2252,-0.2251,-0.2249,-0.2248,0,-0.2967,-0.2941,-0.2978,-0.2972,-0.298,-0.2971,-0.2949,-0.299,-0.2943,-0.2887,-0.28,-0.2743,-0.2644,-0.2475,-0.2391,-0.2274,-0.2398,-0.196,-0.1965,-0.2433,-0.2444,-0.2469,-0.2492,-0.1546,-0.1539,-0.1533,-0.1529,0,-0.2778,-0.2811,-0.281,-0.2829,-0.2812,-0.2804,-0.2788,-0.272,-0.2733,-0.2678,-0.2555,-0.2487,-0.2345,-0.2104,-0.2043,-0.1938,-0.1971,-0.1847,-0.23,-0.1742,-0.1765,-0.178,-0.1823,-0.1479,-0.1484,-0.1488,-0.149,-0.1492,-0.2634,-0.2616,-0.2657,-0.2642,-0.2658,-0.2617,-0.2512,-0.2529,-0.2443,-0.2352,-0.2351,-0.2183,-0.1985,-0.1767,-0.1635,-0.1543,-0.1688,-0.1537,-0.1551,-0.1571,-0.1595,-0.1621,-0.131,-0.1313,-0.1317,-0.132,-0.1322,0,-0.244,-0.2463,-0.2464,-0.2445,-0.2377,-0.2474,-0.2368,-0.2238,-0.2093,-0.2181,-0.2143,-0.1686,-0.1485,-0.1355,-0.111,-0.105,-0.1016,-0.0993,-0.0904,-0.095,-0.0991,-0.0988,-0.0539,-0.0538,-0.0537,-0.0537,0,0,-0.2346,-0.2287,-0.2299,-0.215,-0.2145,-0.1953,-0.1848,-0.1774,-0.176,-0.1708,-0.1641,-0.1741,-0.1425,-0.1079,-0.0905,-0.0729,-0.0897,-0.0685,-0.1291,-0.1247,-0.1291,-0.1245,-0.1283,0,0,0,0,0]},{"header":{"parameterUnit":"m.s-1","parameterCategory":2,"la1":30.2991,"la2":30.254,"lo1":-89.0895,"lo2":-89.0444,"dy":0.0017,"dx":0.0017,"nx":28,"ny":28,"refTime":"2023-08-04T21:00:00:Z","depth":"2","parameterNumber":3,"parameterNumberName":"V-component_of_CURRENTS"},"data":[0,0,0,0,0,0,0,0,0,0,0,0,0,0,0,0,0,0,0,0,0,0,0,0,0,0,0,0,0,0,0,0,0,0,0,0,0,0,0,0,0,0,0,0,0,0,0,0,0,0,0,0,0,0,0,0,0,0,0.048,0.0481,0,0.0587,0.0587,0.0588,0.0534,0.0532,0.053,0.0527,0.0454,0.0454,0.0454,0,0,0,0,0,0,0,0,0,0,0,0,0,0.0461,0.0459,0.048,0.0482,0.0483,0.0587,0.0587,0.0588,0.0535,0.0532,0.0529,0.0526,0.0454,0.0454,0.0454,0,0,0,0,0,0,0,0,0,0,0,0,0,0.0502,0.0459,0.0479,0.0473,0.0474,0.0586,0.0588,0.0589,0.0535,0.0532,0.0528,0.0525,0.0453,0.0454,0.0454,0.0524,0,0,0.0455,0.0455,0,0,0,0,0,0,0,0,0.05,0.0502,0.0472,0.0474,0.0475,0.0549,0.0554,0.056,0.0536,0.0506,0.0527,0.0523,0.0475,0.0473,0.0495,0.0521,0.0518,0.0455,0.0455,0.0455,0.0455,0,0,0,0,0,0,0,0.0497,0.0499,0.0516,0.0475,0.0477,0.0545,0.0544,0.0557,0.0501,0.0508,0.0506,0.0528,0.0473,0.0496,0.0493,0.0517,0.0455,0.0455,0.0455,0.0455,0.0533,0.0535,0,0,0,0,0,0,0.0486,0.0495,0.0513,0.052,0.0486,0.0548,0.0547,0.0524,0.0504,0.0501,0.0531,0.0525,0.0497,0.0493,0.049,0.0478,0.0455,0.0455,0.0455,0.0531,0.0534,0.0536,0,0,0,0,0,0,0.0485,0.0485,0.0509,0.0518,0.0526,0.055,0.0526,0.0528,0.0526,0.0525,0.0516,0.0524,0.0494,0.0489,0.0486,0.0477,0.0455,0.0456,0.0529,0.0532,0.0535,0.0513,0,0,0,0,0,0,0.0483,0.0483,0.0489,0.0515,0.0525,0.0561,0.053,0.0533,0.0549,0.0542,0.0517,0.0508,0.0491,0.0486,0.0486,0.0477,0.0456,0.0527,0.0531,0.0534,0.0511,0.0514,0.0517,0,0,0,0,0,0.0481,0.0482,0.0487,0.0492,0.0521,0.0563,0.0574,0.0579,0.0552,0.0561,0.0541,0.0508,0.0509,0.0488,0.0488,0.0478,0.0525,0.0529,0.0534,0.0509,0.0514,0.0517,0,0,0,0,0,0,0.0478,0.0479,0.0484,0.0485,0.0523,0.0555,0.0577,0.0579,0.0578,0.0553,0.0532,0.0525,0.0517,0.0522,0.0499,0.0519,0.0513,0.0517,0.0495,0.0498,0.0502,0.0473,0.0456,0,0,0,0,0,0.0486,0.0473,0.0506,0.0509,0.0524,0.0552,0.0577,0.0573,0.0575,0.057,0.0553,0.0544,0.0548,0.0537,0.0542,0.0558,0.0603,0.0558,0.0561,0.0563,0.0545,0.0672,0.0684,0.055,0.055,0.055,0,0,0.0489,0.0489,0.0485,0.051,0.0531,0.0543,0.0554,0.0572,0.0568,0.0564,0.054,0.0551,0.0558,0.0563,0.0561,0.0554,0.0623,0.0568,0.0569,0.055,0.0678,0.069,0.0702,0.0553,0.0553,0.0552,0,0,0.0468,0.0482,0.0461,0.0489,0.0522,0.0543,0.0543,0.0565,0.0559,0.0566,0.0557,0.0574,0.0569,0.0581,0.0586,0.0623,0.0639,0.0618,0.06,0.0724,0.0735,0.0746,0.0803,0.0819,0.0617,0.0617,0.0617,0,0.0473,0.044,0.0473,0.0467,0.0485,0.053,0.0519,0.0542,0.0556,0.056,0.0544,0.0583,0.0581,0.0609,0.0603,0.0625,0.0677,0.0574,0.0726,0.0738,0.0749,0.0806,0.0824,0.0616,0.0616,0.0616,0.0616,0,0.0427,0.0421,0.0416,0.0406,0.0441,0.0443,0.0481,0.0494,0.0495,0.0518,0.0545,0.0579,0.0593,0.0611,0.0598,0.0673,0.0677,0.0717,0.0707,0.0761,0.0818,0.0837,0.0615,0.0616,0.0616,0.0616,0,0,0.0356,0.0374,0.0365,0.0366,0.0402,0.0417,0.0427,0.0456,0.0465,0.0497,0.0526,0.0544,0.0569,0.0579,0.0605,0.0698,0.0808,0.0719,0.0726,0.0757,0.1039,0.0964,0.0977,0.0881,0.0884,0.0887,0.1039,0,0.03,0.0264,0.0293,0.0281,0.0275,0.0334,0.0348,0.0388,0.0428,0.0477,0.0542,0.0568,0.0559,0.0568,0.0662,0.0777,0.086,0.0759,0.0997,0.1002,0.0916,0.0998,0.0955,0.1081,0.1057,0.1061,0.1063,0,0.0221,0.0215,0.0173,0.0216,0.0219,0.0215,0.0259,0.0281,0.0375,0.0405,0.0466,0.0531,0.0622,0.064,0.0849,0.0785,0.0886,0.099,0.1,0.0945,0.0964,0.1031,0.1117,0.1095,0.1093,0.109,0.1088,0,0.0126,0.0131,0.0089,0.0098,0.015,0.0135,0.0158,0.0234,0.0267,0.0354,0.0405,0.053,0.0595,0.0766,0.0889,0.0899,0.1142,0.1204,0.1234,0.1228,0.1243,0.1231,0.1376,0.1376,0.1376,0.1375,0.1375,0,0.0042,0.0021,0.0031,0.001,-0.0019,0.0045,0.0041,0.008,0.0179,0.0228,0.0341,0.0407,0.0637,0.0785,0.0918,0.1091,0.1161,0.1232,0.1278,0.123,0.1216,0.1267,0.1253,0.1381,0.138,0.1379,0.1378,0,-0.0048,-0.0049,-0.0084,-0.0072,-0.0076,-0.0105,-0.0054,-0.0017,0.0055,0.0136,0.0159,0.0345,0.0499,0.0699,0.0976,0.1109,0.1296,0.1332,0.1205,0.1232,0.1304,0.1287,0.1456,0.1455,0.1454,0.1453,0.1453,0,-0.0093,-0.0134,-0.017,-0.0201,-0.0211,-0.0227,-0.0211,-0.0125,-0.006,0.0078,0.0135,0.0285,0.0376,0.0711,0.1,0.1248,0.1216,0.1318,0.1343,0.1293,0.1321,0.1305,0.1289,0.1361,0.136,0.1359,0.1358,0,-0.0165,-0.0202,-0.0228,-0.0302,-0.0328,-0.0308,-0.0277,-0.0244,-0.0117,-0.007,0.0012,0.0081,0.0415,0.0681,0.099,0.1123,0.1282,0.1302,0.1352,0.1311,0.1207,0.1232,0.122,0.1348,0.1349,0.135,0.1351,0.1351,-0.0214,-0.0265,-0.0324,-0.0376,-0.0401,-0.0375,-0.0373,-0.0303,-0.0258,-0.0113,-0.0052,0.0152,0.0405,0.0922,0.0994,0.1164,0.1281,0.1324,0.1328,0.1333,0.1258,0.1155,0.1271,0.1271,0.1272,0.1272,0.1273,0,-0.0231,-0.0302,-0.0374,-0.0412,-0.0419,-0.0433,-0.0385,-0.0345,-0.0328,-0.0109,-0.0033,0.0278,0.0564,0.079,0.111,0.1236,0.1232,0.1131,0.1133,0.1146,0.1157,0.1071,0.1035,0.1033,0.1032,0.103,0,0,-0.0242,-0.0314,-0.035,-0.0395,-0.0435,-0.0461,-0.0458,-0.0413,-0.0258,-0.0108,0.0148,0.0496,0.077,0.0901,0.0958,0.1017,0.1024,0.0968,0.117,0.1176,0.1182,0.1303,0.119,0,0,0,0,0]}],[{"header":{"parameterUnit":"m.s-1","parameterCategory":2,"la1":30.2991,"la2":30.254,"lo1":-89.0895,"lo2":-89.0444,"dy":0.0017,"dx":0.0017,"nx":28,"ny":28,"refTime":"2023-08-04T21:00:00:Z","depth":"4","parameterNumber":2,"parameterNumberName":"U-component_of_CURRENTS"},"data":[0,0,0,0,0,0,0,0,0,0,0,0,0,0,0,0,0,0,0,0,0,0,0,0,0,0,0,0,0,0,0,0,0,0,0,0,0,0,0,0,0,0,0,0,0,0,0,0,0,0,0,0,0,0,0,0,0,0,-0.1255,-0.1256,0,-0.131,-0.1311,-0.1311,-0.1355,-0.1356,-0.1356,-0.1357,-0.1413,-0.1414,-0.1415,0,0,0,0,0,0,0,0,0,0,0,0,0,-0.1131,-0.1133,-0.1255,-0.1256,-0.1257,-0.131,-0.1311,-0.1311,-0.1355,-0.1356,-0.1356,-0.1357,-0.1413,-0.1414,-0.1415,0,0,0,0,0,0,0,0,0,0,0,0,0,-0.1182,-0.1134,-0.1255,-0.1288,-0.1292,-0.131,-0.1311,-0.1311,-0.1354,-0.1356,-0.1357,-0.1358,-0.1413,-0.1414,-0.1415,-0.1399,0,0,-0.1419,-0.1419,0,0,0,0,0,0,0,0,-0.1179,-0.1186,-0.1282,-0.1286,-0.129,-0.133,-0.1288,-0.1342,-0.1354,-0.1327,-0.1357,-0.1358,-0.1387,-0.1391,-0.1393,-0.1402,-0.1404,-0.1419,-0.142,-0.142,-0.142,0,0,0,0,0,0,0,-0.1176,-0.1184,-0.1273,-0.1283,-0.1288,-0.1281,-0.129,-0.1298,-0.1347,-0.1329,-0.1333,-0.1345,-0.1389,-0.1392,-0.1395,-0.1405,-0.1419,-0.142,-0.1421,-0.1421,-0.1547,-0.1549,0,0,0,0,0,0,-0.1179,-0.1181,-0.1272,-0.1275,-0.1241,-0.1283,-0.1292,-0.1313,-0.1347,-0.1354,-0.1344,-0.1347,-0.1389,-0.1393,-0.1397,-0.1485,-0.142,-0.1421,-0.1422,-0.1544,-0.1547,-0.155,0,0,0,0,0,0,-0.1176,-0.1186,-0.127,-0.1231,-0.1242,-0.1285,-0.1307,-0.1314,-0.1347,-0.1359,-0.1366,-0.1375,-0.139,-0.1395,-0.1454,-0.1484,-0.1422,-0.1423,-0.1541,-0.1545,-0.1549,-0.1595,0,0,0,0,0,0,-0.1172,-0.1185,-0.1198,-0.1232,-0.1245,-0.1294,-0.1307,-0.1314,-0.1353,-0.1358,-0.1387,-0.1392,-0.1392,-0.1453,-0.1456,-0.1484,-0.1424,-0.1538,-0.1543,-0.1548,-0.159,-0.16,-0.1608,0,0,0,0,0,-0.1168,-0.1181,-0.1199,-0.121,-0.1263,-0.1295,-0.13,-0.1331,-0.1353,-0.1366,-0.1412,-0.1392,-0.1486,-0.1456,-0.1458,-0.1488,-0.1535,-0.1542,-0.1547,-0.1586,-0.1598,-0.1608,0,0,0,0,0,0,-0.114,-0.1188,-0.1208,-0.1239,-0.1272,-0.1304,-0.132,-0.1346,-0.1389,-0.141,-0.1421,-0.143,-0.15,-0.1492,-0.1458,-0.1545,-0.1509,-0.1516,-0.1537,-0.1549,-0.1558,-0.1536,-0.1425,0,0,0,0,0,-0.1139,-0.1154,-0.1207,-0.1227,-0.1253,-0.1293,-0.1311,-0.1341,-0.1384,-0.1404,-0.1436,-0.1477,-0.1519,-0.1533,-0.1569,-0.1601,-0.1567,-0.1627,-0.1636,-0.1643,-0.1632,-0.1653,-0.1662,-0.157,-0.157,-0.157,0,0,-0.1129,-0.1159,-0.1167,-0.122,-0.1252,-0.1286,-0.1307,-0.1352,-0.1382,-0.1403,-0.1467,-0.1516,-0.1542,-0.1598,-0.1625,-0.1594,-0.1645,-0.1651,-0.1657,-0.1641,-0.166,-0.1668,-0.1676,-0.1574,-0.1573,-0.1573,0,0,-0.1116,-0.1156,-0.117,-0.1202,-0.1261,-0.1291,-0.1314,-0.1378,-0.1412,-0.1479,-0.1517,-0.1578,-0.1637,-0.1657,-0.1673,-0.1748,-0.1707,-0.178,-0.1788,-0.181,-0.1816,-0.1822,-0.1745,-0.1743,-0.1767,-0.1767,-0.1767,0,-0.1111,-0.1137,-0.1177,-0.1206,-0.1228,-0.13,-0.1326,-0.1371,-0.1448,-0.1484,-0.1511,-0.1635,-0.1655,-0.171,-0.1749,-0.1762,-0.175,-0.1738,-0.1817,-0.1823,-0.1827,-0.1748,-0.1745,-0.177,-0.177,-0.1769,-0.1769,0,-0.1108,-0.1139,-0.1155,-0.1212,-0.1238,-0.1277,-0.1345,-0.1367,-0.1433,-0.1519,-0.1619,-0.167,-0.1734,-0.1764,-0.178,-0.1838,-0.1807,-0.1837,-0.1778,-0.1839,-0.1751,-0.1747,-0.1774,-0.1773,-0.1772,-0.1772,0,0,-0.1073,-0.1142,-0.1148,-0.1174,-0.1247,-0.1273,-0.1294,-0.1363,-0.1404,-0.1523,-0.1561,-0.169,-0.1771,-0.1794,-0.1831,-0.185,-0.1859,-0.1866,-0.1866,-0.1766,-0.1853,-0.173,-0.1712,-0.1928,-0.1929,-0.193,-0.1759,0,-0.1066,-0.1105,-0.1139,-0.118,-0.1209,-0.1241,-0.1269,-0.1341,-0.1415,-0.1477,-0.1578,-0.1685,-0.1774,-0.1808,-0.1855,-0.1876,-0.1863,-0.1898,-0.1829,-0.1824,-0.169,-0.171,-0.1933,-0.1756,-0.1755,-0.1755,-0.1754,0,-0.1044,-0.1076,-0.1109,-0.1163,-0.1183,-0.1232,-0.125,-0.129,-0.1388,-0.1442,-0.1557,-0.1664,-0.1741,-0.1785,-0.1852,-0.1887,-0.1872,-0.1868,-0.1863,-0.1728,-0.1697,-0.1698,-0.1747,-0.1748,-0.1748,-0.1749,-0.1749,0,-0.0973,-0.1047,-0.1069,-0.1092,-0.1172,-0.1184,-0.1237,-0.1317,-0.1319,-0.144,-0.1459,-0.1625,-0.1674,-0.1729,-0.1783,-0.1826,-0.1792,-0.1834,-0.1682,-0.1669,-0.1807,-0.1804,-0.183,-0.183,-0.1831,-0.1831,-0.1832,0,-0.0926,-0.0954,-0.1064,-0.1079,-0.1116,-0.1194,-0.1228,-0.1265,-0.13,-0.1344,-0.1495,-0.1504,-0.1683,-0.1704,-0.1733,-0.1691,-0.176,-0.166,-0.1632,-0.1824,-0.1826,-0.18,-0.1799,-0.1825,-0.1826,-0.1827,-0.1828,0,-0.084,-0.0904,-0.0941,-0.1048,-0.1083,-0.1119,-0.1174,-0.1173,-0.126,-0.1257,-0.1289,-0.1411,-0.1473,-0.1555,-0.1598,-0.1604,-0.1569,-0.1519,-0.1639,-0.1624,-0.1423,-0.1426,-0.1315,-0.131,-0.1305,-0.1301,-0.1298,0,-0.0808,-0.0821,-0.0902,-0.0907,-0.0973,-0.1034,-0.1038,-0.1122,-0.1128,-0.1195,-0.1182,-0.1249,-0.1337,-0.1268,-0.1389,-0.1365,-0.1384,-0.1335,-0.146,-0.1393,-0.1377,-0.1388,-0.1398,-0.1291,-0.129,-0.1288,-0.1287,0,-0.0751,-0.0781,-0.0786,-0.0799,-0.083,-0.0849,-0.0918,-0.0899,-0.0996,-0.1032,-0.105,-0.1077,-0.1107,-0.1182,-0.1169,-0.1173,-0.1369,-0.1288,-0.1299,-0.1416,-0.1363,-0.1354,-0.1369,-0.1271,-0.1274,-0.1275,-0.1276,0,-0.0693,-0.0678,-0.0682,-0.0691,-0.0682,-0.0718,-0.0768,-0.0805,-0.0813,-0.0924,-0.0911,-0.0994,-0.1078,-0.1071,-0.1058,-0.1056,-0.1071,-0.1082,-0.1105,-0.1123,-0.1156,-0.1066,-0.0837,0,0,0,0,0,-0.0638,-0.0612,-0.0587,-0.0588,-0.056,-0.0612,-0.0683,-0.0745,-0.0843,-0.0807,-0.0863,-0.0882,-0.0895,-0.0933,-0.0897,-0.0986,-0.1084,-0.0942,-0.1112,-0.1183,-0.1201,-0.1268,0,0,0,0,0,0,-0.0594,-0.0559,-0.0559,-0.0501,-0.0488,-0.0503,-0.0571,-0.0656,-0.0678,-0.0763,-0.0772,-0.081,-0.0836,-0.0881,-0.0866,-0.0876,-0.0966,-0.0972,-0.0969,-0.1172,-0.1189,-0.1204,-0.1279,0,0,0,0,0]},{"header":{"parameterUnit":"m.s-1","parameterCategory":2,"la1":30.2991,"la2":30.254,"lo1":-89.0895,"lo2":-89.0444,"dy":0.0017,"dx":0.0017,"nx":28,"ny":28,"refTime":"2023-08-04T21:00:00:Z","depth":"4","parameterNumber":3,"parameterNumberName":"V-component_of_CURRENTS"},"data":[0,0,0,0,0,0,0,0,0,0,0,0,0,0,0,0,0,0,0,0,0,0,0,0,0,0,0,0,0,0,0,0,0,0,0,0,0,0,0,0,0,0,0,0,0,0,0,0,0,0,0,0,0,0,0,0,0,0,-0.019,-0.019,0,-0.0206,-0.0207,-0.0207,-0.0154,-0.0152,-0.015,-0.0148,-0.0151,-0.0153,-0.0155,0,0,0,0,0,0,0,0,0,0,0,0,0,-0.0169,-0.017,-0.019,-0.019,-0.0189,-0.0206,-0.0207,-0.0207,-0.0155,-0.0152,-0.015,-0.0147,-0.015,-0.0152,-0.0155,0,0,0,0,0,0,0,0,0,0,0,0,0,-0.0186,-0.017,-0.019,-0.0162,-0.0159,-0.0206,-0.0207,-0.0208,-0.0155,-0.0152,-0.0149,-0.0146,-0.0149,-0.0152,-0.0155,-0.0235,0,0,-0.0164,-0.0166,0,0,0,0,0,0,0,0,-0.0185,-0.0187,-0.0166,-0.0164,-0.016,-0.0171,-0.02,-0.0214,-0.0156,-0.0162,-0.0148,-0.0145,-0.0155,-0.0158,-0.0175,-0.0235,-0.0235,-0.0164,-0.0166,-0.0168,-0.0168,0,0,0,0,0,0,0,-0.0183,-0.0186,-0.0201,-0.0166,-0.0163,-0.0167,-0.0166,-0.0203,-0.0179,-0.0161,-0.0156,-0.0151,-0.0154,-0.0172,-0.0174,-0.0235,-0.0164,-0.0167,-0.0169,-0.017,-0.0315,-0.0317,0,0,0,0,0,0,-0.0173,-0.0185,-0.0201,-0.0201,-0.016,-0.0169,-0.0168,-0.0175,-0.0179,-0.0175,-0.0154,-0.0148,-0.0168,-0.0171,-0.0174,-0.025,-0.0168,-0.017,-0.0172,-0.0313,-0.0316,-0.0318,0,0,0,0,0,0,-0.0172,-0.0175,-0.02,-0.0189,-0.0191,-0.0172,-0.018,-0.0176,-0.0181,-0.0172,-0.0169,-0.0158,-0.0166,-0.017,-0.02,-0.025,-0.0172,-0.0174,-0.0311,-0.0314,-0.0317,-0.0415,0,0,0,0,0,0,-0.0172,-0.0175,-0.019,-0.0189,-0.0192,-0.0242,-0.0182,-0.0179,-0.0181,-0.0174,-0.0177,-0.0174,-0.0164,-0.0196,-0.0203,-0.0253,-0.0177,-0.0308,-0.0312,-0.0316,-0.0409,-0.0421,-0.0431,0,0,0,0,0,-0.0172,-0.0207,-0.0192,-0.0193,-0.0209,-0.0243,-0.0248,-0.0225,-0.0184,-0.0212,-0.0195,-0.0173,-0.0225,-0.0201,-0.0209,-0.026,-0.0306,-0.0311,-0.0316,-0.0404,-0.0419,-0.0431,0,0,0,0,0,0,-0.0211,-0.0204,-0.0187,-0.0219,-0.0233,-0.0232,-0.0253,-0.0233,-0.0246,-0.0229,-0.0206,-0.0206,-0.0247,-0.0245,-0.0218,-0.0312,-0.0262,-0.0268,-0.0326,-0.034,-0.0351,-0.033,-0.0179,0,0,0,0,0,-0.0226,-0.0249,-0.0243,-0.0274,-0.0275,-0.0264,-0.0275,-0.0263,-0.0264,-0.0264,-0.0263,-0.0263,-0.0281,-0.0298,-0.0313,-0.0381,-0.0305,-0.0416,-0.0427,-0.0437,-0.0425,-0.0371,-0.0375,-0.0334,-0.0334,-0.0333,0,0,-0.025,-0.025,-0.0263,-0.0284,-0.0285,-0.0319,-0.0265,-0.0289,-0.0311,-0.0268,-0.0303,-0.0302,-0.0303,-0.0362,-0.0382,-0.0364,-0.0403,-0.0442,-0.0451,-0.0434,-0.0376,-0.0379,-0.0382,-0.0337,-0.0336,-0.0336,0,0,-0.0307,-0.0307,-0.0337,-0.0356,-0.0363,-0.0367,-0.0372,-0.0378,-0.0369,-0.0417,-0.0376,-0.0401,-0.0446,-0.0452,-0.046,-0.0548,-0.0455,-0.0558,-0.0613,-0.0562,-0.0564,-0.0564,-0.044,-0.0429,-0.0575,-0.0575,-0.0575,0,-0.0327,-0.0365,-0.0358,-0.0392,-0.0407,-0.0388,-0.0426,-0.0438,-0.0455,-0.0452,-0.0439,-0.0478,-0.049,-0.0531,-0.0563,-0.0574,-0.0492,-0.0564,-0.0573,-0.0573,-0.0572,-0.0444,-0.0431,-0.058,-0.058,-0.0579,-0.0579,0,-0.04,-0.0432,-0.0455,-0.0487,-0.0517,-0.0551,-0.0553,-0.0573,-0.0563,-0.0567,-0.0595,-0.0607,-0.0621,-0.0647,-0.0638,-0.0655,-0.0577,-0.0582,-0.0533,-0.0581,-0.0444,-0.0428,-0.0588,-0.0586,-0.0584,-0.0583,0,0,-0.0421,-0.0487,-0.0494,-0.0514,-0.0562,-0.0586,-0.063,-0.0655,-0.066,-0.069,-0.0694,-0.0753,-0.0732,-0.0738,-0.0729,-0.0706,-0.0639,-0.0649,-0.0644,-0.0511,-0.0451,-0.0358,-0.033,-0.0636,-0.0635,-0.0634,-0.0344,0,-0.0466,-0.0535,-0.0569,-0.0644,-0.0668,-0.0681,-0.0721,-0.0744,-0.0755,-0.0764,-0.0757,-0.0776,-0.0773,-0.078,-0.0759,-0.0669,-0.0606,-0.0712,-0.0435,-0.0425,-0.0327,-0.0314,-0.063,-0.0332,-0.0328,-0.0325,-0.0323,0,-0.0512,-0.0548,-0.0622,-0.0681,-0.0692,-0.075,-0.0783,-0.0823,-0.0834,-0.0829,-0.0841,-0.0823,-0.0803,-0.0792,-0.0638,-0.0696,-0.0575,-0.0498,-0.0485,-0.0351,-0.0304,-0.0282,-0.0293,-0.0295,-0.0297,-0.0299,-0.0301,0,-0.0499,-0.058,-0.0635,-0.0661,-0.0735,-0.0767,-0.081,-0.0846,-0.0851,-0.0871,-0.0859,-0.0835,-0.079,-0.0682,-0.0528,-0.0574,-0.0306,-0.0351,-0.0133,-0.0122,-0.0247,-0.025,-0.0212,-0.0212,-0.0213,-0.0213,-0.0214,0,-0.0522,-0.0566,-0.0633,-0.0667,-0.0725,-0.0775,-0.0828,-0.0862,-0.0875,-0.0866,-0.089,-0.0837,-0.0759,-0.0609,-0.0488,-0.0228,-0.026,-0.0108,-0.0048,-0.0291,-0.0303,-0.0232,-0.0238,-0.0202,-0.0205,-0.0207,-0.0209,0,-0.0518,-0.0562,-0.0625,-0.0701,-0.0729,-0.0775,-0.0838,-0.0849,-0.0876,-0.0854,-0.0852,-0.0792,-0.0601,-0.0464,-0.0242,-0.0143,0.0059,0.0168,-0.0025,0.0015,0.0207,0.0192,0.0425,0.043,0.0435,0.0439,0.0442,0,-0.0523,-0.0552,-0.0644,-0.0674,-0.0722,-0.0781,-0.0803,-0.0847,-0.0843,-0.08,-0.0762,-0.0608,-0.0536,-0.0119,-0.0018,0.027,0.0285,0.0406,0.022,0.0234,0.0269,0.0246,0.0225,0.045,0.0451,0.0452,0.0453,0,-0.0527,-0.0565,-0.0613,-0.0669,-0.0711,-0.0753,-0.0789,-0.0763,-0.0771,-0.078,-0.062,-0.0468,-0.0226,-0.0032,0.0215,0.0389,0.0309,0.0454,0.0443,0.0269,0.0267,0.0292,0.0266,0.047,0.0467,0.0466,0.0465,0,-0.0523,-0.0555,-0.061,-0.0658,-0.0703,-0.0719,-0.0737,-0.0679,-0.0663,-0.0602,-0.0521,-0.0338,-0.024,0.0043,0.0258,0.0448,0.0447,0.0457,0.0445,0.0429,0.03,0.0289,0.0581,0,0,0,0,0,-0.0518,-0.055,-0.0588,-0.0652,-0.0687,-0.072,-0.0718,-0.0713,-0.0685,-0.0543,-0.053,-0.0305,-0.0001,0.0102,0.0318,0.0299,0.045,0.0553,0.0448,0.056,0.0541,0.0391,0,0,0,0,0,0,-0.052,-0.0559,-0.0583,-0.0625,-0.0659,-0.07,-0.0692,-0.067,-0.0581,-0.0528,-0.0356,-0.0278,0.0017,-0.0125,0.0309,0.0359,0.032,0.0683,0.0688,0.0571,0.0554,0.0539,0.0377,0,0,0,0,0]}]]